Time,TemperatureF,DewpointF,PressureIn,WindDirection,WindDirectionDegrees,WindSpeedMPH,WindSpeedGustMPH,Humidity,HourlyPrecipIn,Conditions,Clouds,dailyrainin,SolarRadiationWatts/m^2,SoftwareType,DateUTC
2013-03-01 00:01:00,26.6,21.9,30.30,NNE,26,5.0,0.0,82,0.00,,,0.00,0,WeatherTracker,2013-03-01 06:01:00,
2013-03-01 00:06:00,26.6,21.9,30.29,NNE,19,3.0,0.0,82,0.00,,,0.00,0,WeatherTracker,2013-03-01 06:06:00,
2013-03-01 00:11:00,26.6,21.9,30.29,NNE,19,1.0,0.0,82,0.00,,,0.00,0,WeatherTracker,2013-03-01 06:11:00,
2013-03-01 00:16:00,26.6,21.6,30.29,NNE,19,4.0,0.0,81,0.00,,,0.00,0,WeatherTracker,2013-03-01 06:16:00,
2013-03-01 00:21:00,26.7,21.7,30.29,NNW,339,0.0,0.0,81,0.00,,,0.00,0,WeatherTracker,2013-03-01 06:21:00,
2013-03-01 00:26:00,26.7,21.7,30.29,NNW,342,2.0,0.0,81,0.00,,,0.00,0,WeatherTracker,2013-03-01 06:26:00,
2013-03-01 00:31:00,26.6,21.6,30.29,NNW,342,2.0,0.0,81,0.00,,,0.00,0,WeatherTracker,2013-03-01 06:31:00,
2013-03-01 00:36:00,26.5,21.8,30.29,North,350,3.0,0.0,82,0.00,,,0.00,0,WeatherTracker,2013-03-01 06:36:00,
2013-03-01 00:42:00,26.5,21.8,30.29,North,355,3.0,0.0,82,0.00,,,0.00,0,WeatherTracker,2013-03-01 06:42:00,
2013-03-01 00:47:00,26.5,21.8,30.29,North,5,4.0,0.0,82,0.00,,,0.00,0,WeatherTracker,2013-03-01 06:47:00,
2013-03-01 00:52:00,26.4,21.7,30.30,North,11,0.0,0.0,82,0.00,,,0.00,0,WeatherTracker,2013-03-01 06:52:00,
2013-03-01 00:57:00,26.4,21.7,30.30,North,9,6.0,0.0,82,0.00,,,0.00,0,WeatherTracker,2013-03-01 06:57:00,
2013-03-01 01:02:00,26.3,21.6,30.30,North,360,5.0,0.0,82,0.00,,,0.00,0,WeatherTracker,2013-03-01 07:02:00,
2013-03-01 01:07:00,26.3,21.6,30.30,North,5,3.0,0.0,82,0.00,,,0.00,0,WeatherTracker,2013-03-01 07:07:00,
2013-03-01 01:12:00,26.3,21.6,30.30,North,360,0.0,0.0,82,0.00,,,0.00,0,WeatherTracker,2013-03-01 07:12:00,
2013-03-01 01:17:00,26.3,21.3,30.30,North,5,0.0,0.0,81,0.00,,,0.00,0,WeatherTracker,2013-03-01 07:17:00,
2013-03-01 01:22:00,26.3,21.3,30.30,NNE,13,6.0,0.0,81,0.00,,,0.00,0,WeatherTracker,2013-03-01 07:22:00,
2013-03-01 01:27:00,26.3,21.3,30.30,NNE,24,4.0,0.0,81,0.00,,,0.00,0,WeatherTracker,2013-03-01 07:27:00,
2013-03-01 01:32:00,26.2,21.2,30.31,NNE,24,0.0,0.0,81,0.00,,,0.00,0,WeatherTracker,2013-03-01 07:32:00,
2013-03-01 01:37:00,26.2,21.2,30.30,NNE,19,2.0,0.0,81,0.00,,,0.00,0,WeatherTracker,2013-03-01 07:37:00,
2013-03-01 01:42:00,26.1,21.1,30.30,NNE,19,3.0,0.0,81,0.00,,,0.00,0,WeatherTracker,2013-03-01 07:42:00,
2013-03-01 01:47:00,26.1,21.4,30.30,NNE,19,4.0,0.0,82,0.00,,,0.00,0,WeatherTracker,2013-03-01 07:47:00,
2013-03-01 01:52:00,26.1,21.4,30.30,NNE,14,2.0,0.0,82,0.00,,,0.00,0,WeatherTracker,2013-03-01 07:52:00,
2013-03-01 01:57:00,26.1,21.4,30.30,North,10,5.0,0.0,82,0.00,,,0.00,0,WeatherTracker,2013-03-01 07:57:00,
2013-03-01 02:02:00,26.0,21.3,30.30,North,10,3.0,0.0,82,0.00,,,0.00,0,WeatherTracker,2013-03-01 08:02:00,
2013-03-01 02:07:00,26.0,21.3,30.30,NW,325,2.0,0.0,82,0.00,,,0.00,0,WeatherTracker,2013-03-01 08:07:00,
2013-03-01 02:13:00,26.0,21.3,30.30,NW,326,1.0,0.0,82,0.00,,,0.00,0,WeatherTracker,2013-03-01 08:13:00,
2013-03-01 02:18:00,26.1,21.4,30.30,NNW,338,0.0,0.0,82,0.00,,,0.00,0,WeatherTracker,2013-03-01 08:18:00,
2013-03-01 02:23:00,26.1,21.4,30.31,North,350,3.0,0.0,82,0.00,,,0.00,0,WeatherTracker,2013-03-01 08:23:00,
2013-03-01 02:28:00,26.1,21.4,30.31,North,355,2.0,0.0,82,0.00,,,0.00,0,WeatherTracker,2013-03-01 08:28:00,
2013-03-01 02:33:00,26.1,21.4,30.31,North,355,0.0,0.0,82,0.00,,,0.00,0,WeatherTracker,2013-03-01 08:33:00,
2013-03-01 02:38:00,26.0,21.3,30.31,North,350,2.0,0.0,82,0.00,,,0.00,0,WeatherTracker,2013-03-01 08:38:00,
2013-03-01 02:43:00,26.0,21.3,30.31,North,355,3.0,0.0,82,0.00,,,0.00,0,WeatherTracker,2013-03-01 08:43:00,
2013-03-01 02:48:00,26.1,21.4,30.31,NNW,344,5.0,0.0,82,0.00,,,0.00,0,WeatherTracker,2013-03-01 08:48:00,
2013-03-01 02:53:00,26.0,21.3,30.30,NNW,331,7.0,0.0,82,0.00,,,0.00,0,WeatherTracker,2013-03-01 08:53:00,
2013-03-01 02:58:00,26.0,21.3,30.30,NNW,344,1.0,0.0,82,0.00,,,0.00,0,WeatherTracker,2013-03-01 08:58:00,
2013-03-01 03:03:00,26.0,21.3,30.30,NNW,341,0.0,0.0,82,0.00,,,0.00,0,WeatherTracker,2013-03-01 09:03:00,
2013-03-01 03:08:00,26.0,21.3,30.30,NNW,339,3.0,0.0,82,0.00,,,0.00,0,WeatherTracker,2013-03-01 09:08:00,
2013-03-01 03:13:00,25.9,20.9,30.30,NNW,342,10.0,0.0,81,0.00,,,0.00,0,WeatherTracker,2013-03-01 09:13:00,
2013-03-01 03:18:00,25.8,20.5,30.30,North,5,1.0,0.0,80,0.00,,,0.00,0,WeatherTracker,2013-03-01 09:18:00,
2013-03-01 03:23:00,25.7,20.4,30.30,NNW,342,4.0,0.0,80,0.00,,,0.00,0,WeatherTracker,2013-03-01 09:23:00,
2013-03-01 03:28:00,25.6,20.0,30.30,NW,304,9.0,0.0,79,0.00,,,0.00,0,WeatherTracker,2013-03-01 09:28:00,
2013-03-01 03:33:00,25.5,19.6,30.30,WNW,302,3.0,0.0,78,0.00,,,0.00,0,WeatherTracker,2013-03-01 09:33:00,
2013-03-01 03:38:00,25.4,19.5,30.30,NNW,340,2.0,0.0,78,0.00,,,0.00,0,WeatherTracker,2013-03-01 09:38:00,
2013-03-01 03:43:00,25.4,19.8,30.30,North,355,3.0,0.0,79,0.00,,,0.00,0,WeatherTracker,2013-03-01 09:43:00,
2013-03-01 03:48:00,25.4,19.8,30.30,NNE,16,3.0,0.0,79,0.00,,,0.00,0,WeatherTracker,2013-03-01 09:48:00,
2013-03-01 03:53:00,25.3,19.7,30.30,NW,314,1.0,0.0,79,0.00,,,0.00,0,WeatherTracker,2013-03-01 09:53:00,
2013-03-01 03:58:00,25.2,19.6,30.30,NNW,334,4.0,0.0,79,0.00,,,0.00,0,WeatherTracker,2013-03-01 09:58:00,
2013-03-01 04:03:00,25.2,19.9,30.30,NNW,341,6.0,0.0,80,0.00,,,0.00,0,WeatherTracker,2013-03-01 10:03:00,
2013-03-01 04:08:00,25.2,19.9,30.30,NNE,14,3.0,0.0,80,0.00,,,0.00,0,WeatherTracker,2013-03-01 10:08:00,
2013-03-01 04:13:00,25.1,19.8,30.30,North,350,3.0,0.0,80,0.00,,,0.00,0,WeatherTracker,2013-03-01 10:13:00,
2013-03-01 04:19:00,25.1,19.8,30.30,North,10,13.0,0.0,80,0.00,,,0.00,0,WeatherTracker,2013-03-01 10:19:00,
2013-03-01 04:24:00,25.1,19.8,30.30,North,360,2.0,0.0,80,0.00,,,0.00,0,WeatherTracker,2013-03-01 10:24:00,
2013-03-01 04:29:00,25.0,20.0,30.31,NW,306,2.0,0.0,81,0.00,,,0.00,0,WeatherTracker,2013-03-01 10:29:00,
2013-03-01 04:34:00,24.8,19.8,30.31,NNW,331,7.0,0.0,81,0.00,,,0.00,0,WeatherTracker,2013-03-01 10:34:00,
2013-03-01 04:39:00,24.6,19.6,30.31,North,350,4.0,0.0,81,0.00,,,0.00,0,WeatherTracker,2013-03-01 10:39:00,
2013-03-01 04:44:00,24.6,19.3,30.31,NNW,342,3.0,0.0,80,0.00,,,0.00,0,WeatherTracker,2013-03-01 10:44:00,
2013-03-01 04:49:00,24.5,19.2,30.31,North,355,2.0,0.0,80,0.00,,,0.00,0,WeatherTracker,2013-03-01 10:49:00,
2013-03-01 04:54:00,24.4,19.1,30.31,North,5,5.0,0.0,80,0.00,,,0.00,0,WeatherTracker,2013-03-01 10:54:00,
2013-03-01 04:59:00,24.4,19.4,30.31,North,355,3.0,0.0,81,0.00,,,0.00,0,WeatherTracker,2013-03-01 10:59:00,
2013-03-01 05:04:00,24.4,19.4,30.31,NW,321,1.0,0.0,81,0.00,,,0.00,0,WeatherTracker,2013-03-01 11:04:00,
2013-03-01 05:09:00,24.4,19.4,30.31,NNW,336,2.0,0.0,81,0.00,,,0.00,0,WeatherTracker,2013-03-01 11:09:00,
2013-03-01 05:14:00,24.4,19.4,30.31,NNE,15,3.0,0.0,81,0.00,,,0.00,0,WeatherTracker,2013-03-01 11:14:00,
2013-03-01 05:19:00,24.4,19.4,30.31,NNE,14,3.0,0.0,81,0.00,,,0.00,0,WeatherTracker,2013-03-01 11:19:00,
2013-03-01 05:24:00,24.5,19.5,30.32,NNW,348,4.0,0.0,81,0.00,,,0.00,0,WeatherTracker,2013-03-01 11:24:00,
2013-03-01 05:29:00,24.5,19.5,30.32,NNW,333,6.0,0.0,81,0.00,,,0.00,0,WeatherTracker,2013-03-01 11:29:00,
2013-03-01 05:34:00,24.5,19.5,30.31,NW,325,2.0,0.0,81,0.00,,,0.00,0,WeatherTracker,2013-03-01 11:34:00,
2013-03-01 05:39:00,24.5,19.5,30.32,NNW,344,7.0,0.0,81,0.00,,,0.00,0,WeatherTracker,2013-03-01 11:39:00,
2013-03-01 05:44:00,24.5,19.5,30.32,NNW,348,4.0,0.0,81,0.00,,,0.00,0,WeatherTracker,2013-03-01 11:44:00,
2013-03-01 05:49:00,24.6,19.9,30.32,North,355,1.0,0.0,82,0.00,,,0.00,0,WeatherTracker,2013-03-01 11:49:00,
2013-03-01 05:54:00,24.6,19.9,30.32,NNW,328,6.0,0.0,82,0.00,,,0.00,0,WeatherTracker,2013-03-01 11:54:00,
2013-03-01 05:59:00,24.6,19.9,30.32,North,5,4.0,0.0,82,0.00,,,0.00,0,WeatherTracker,2013-03-01 11:59:00,
2013-03-01 06:04:00,24.7,20.0,30.32,WNW,298,10.0,0.0,82,0.00,,,0.00,0,WeatherTracker,2013-03-01 12:04:00,
2013-03-01 06:09:00,24.6,19.9,30.32,North,360,4.0,0.0,82,0.00,,,0.00,0,WeatherTracker,2013-03-01 12:09:00,
2013-03-01 06:14:00,24.6,19.9,30.32,NNW,347,3.0,0.0,82,0.00,,,0.00,0,WeatherTracker,2013-03-01 12:14:00,
2013-03-01 06:19:00,24.7,19.7,30.33,NNE,13,6.0,0.0,81,0.00,,,0.00,0,WeatherTracker,2013-03-01 12:19:00,
2013-03-01 06:24:00,24.6,19.6,30.33,NNW,346,5.0,0.0,81,0.00,,,0.00,0,WeatherTracker,2013-03-01 12:24:00,
2013-03-01 06:30:00,24.6,19.6,30.33,NNE,29,3.0,0.0,81,0.00,,,0.00,0,WeatherTracker,2013-03-01 12:30:00,
2013-03-01 06:35:00,24.6,19.9,30.33,North,360,5.0,0.0,82,0.00,,,0.00,0,WeatherTracker,2013-03-01 12:35:00,
2013-03-01 06:40:00,24.6,19.9,30.33,North,360,4.0,0.0,82,0.00,,,0.00,0,WeatherTracker,2013-03-01 12:40:00,
2013-03-01 06:45:00,24.5,19.8,30.33,North,355,5.0,0.0,82,0.00,,,0.00,0,WeatherTracker,2013-03-01 12:45:00,
2013-03-01 06:50:00,24.5,19.8,30.33,North,5,2.0,0.0,82,0.00,,,0.00,0,WeatherTracker,2013-03-01 12:50:00,
2013-03-01 06:55:00,24.5,19.8,30.33,NNE,13,4.0,0.0,82,0.00,,,0.00,0,WeatherTracker,2013-03-01 12:55:00,
2013-03-01 07:00:00,24.5,19.8,30.34,NNE,15,3.0,0.0,82,0.00,,,0.00,0,WeatherTracker,2013-03-01 13:00:00,
2013-03-01 07:05:00,24.4,19.7,30.34,NNE,12,15.0,0.0,82,0.00,,,0.00,0,WeatherTracker,2013-03-01 13:05:00,
2013-03-01 07:10:00,24.4,19.4,30.34,NNE,17,6.0,0.0,81,0.00,,,0.00,0,WeatherTracker,2013-03-01 13:10:00,
2013-03-01 07:15:00,24.3,19.0,30.34,NE,34,5.0,0.0,80,0.00,,,0.00,5,WeatherTracker,2013-03-01 13:15:00,
2013-03-01 07:20:00,24.4,19.1,30.34,NNE,12,5.0,0.0,80,0.00,,,0.00,7,WeatherTracker,2013-03-01 13:20:00,
2013-03-01 07:25:00,24.3,19.0,30.34,North,355,4.0,0.0,80,0.00,,,0.00,7,WeatherTracker,2013-03-01 13:25:00,
2013-03-01 07:30:00,24.4,19.1,30.34,North,355,7.0,0.0,80,0.00,,,0.00,12,WeatherTracker,2013-03-01 13:30:00,
2013-03-01 07:35:00,24.3,19.0,30.34,North,360,4.0,0.0,80,0.00,,,0.00,16,WeatherTracker,2013-03-01 13:35:00,
2013-03-01 07:40:00,24.4,19.1,30.34,NNW,336,7.0,0.0,80,0.00,,,0.00,19,WeatherTracker,2013-03-01 13:40:00,
2013-03-01 07:45:00,24.4,19.1,30.35,North,9,11.0,0.0,80,0.00,,,0.00,19,WeatherTracker,2013-03-01 13:45:00,
2013-03-01 07:50:00,24.4,19.1,30.35,NNE,15,5.0,0.0,80,0.00,,,0.00,26,WeatherTracker,2013-03-01 13:50:00,
2013-03-01 07:56:00,24.4,19.4,30.35,NNE,28,3.0,0.0,81,0.00,,,0.00,28,WeatherTracker,2013-03-01 13:56:00,
2013-03-01 08:01:00,24.1,19.1,30.35,NE,37,3.0,0.0,81,0.00,,,0.00,33,WeatherTracker,2013-03-01 14:01:00,
2013-03-01 08:06:00,23.9,19.2,30.35,NNE,24,5.0,0.0,82,0.00,,,0.00,47,WeatherTracker,2013-03-01 14:06:00,
2013-03-01 08:11:00,23.9,19.2,30.35,NNE,14,5.0,0.0,82,0.00,,,0.00,62,WeatherTracker,2013-03-01 14:11:00,
2013-03-01 08:16:00,23.9,19.2,30.35,NNE,32,3.0,0.0,82,0.00,,,0.00,67,WeatherTracker,2013-03-01 14:16:00,
2013-03-01 08:21:00,23.9,19.2,30.35,NNE,30,3.0,0.0,82,0.00,,,0.00,72,WeatherTracker,2013-03-01 14:21:00,
2013-03-01 08:26:00,24.0,19.3,30.35,NNE,30,1.0,0.0,82,0.00,,,0.00,77,WeatherTracker,2013-03-01 14:26:00,
2013-03-01 08:31:00,23.9,19.2,30.36,NNE,32,10.0,0.0,82,0.00,,,0.00,81,WeatherTracker,2013-03-01 14:31:00,
2013-03-01 08:36:00,23.8,19.1,30.36,NNE,32,11.0,0.0,82,0.00,,,0.00,93,WeatherTracker,2013-03-01 14:36:00,
2013-03-01 08:41:00,23.6,18.9,30.36,NE,48,7.0,0.0,82,0.00,,,0.00,97,WeatherTracker,2013-03-01 14:41:00,
2013-03-01 08:46:00,23.7,19.0,30.36,NNE,20,2.0,0.0,82,0.00,,,0.00,102,WeatherTracker,2013-03-01 14:46:00,
2013-03-01 08:51:00,23.9,19.2,30.36,NNE,28,3.0,0.0,82,0.00,,,0.00,113,WeatherTracker,2013-03-01 14:51:00,
2013-03-01 08:56:00,24.0,19.3,30.36,NE,34,6.0,0.0,82,0.00,,,0.00,118,WeatherTracker,2013-03-01 14:56:00,
2013-03-01 09:01:00,24.0,19.0,30.36,NNE,24,12.0,0.0,81,0.00,,,0.00,141,WeatherTracker,2013-03-01 15:01:00,
2013-03-01 09:06:00,24.0,18.7,30.37,NE,49,2.0,0.0,80,0.00,,,0.00,135,WeatherTracker,2013-03-01 15:06:00,
2013-03-01 09:11:00,24.0,18.7,30.37,NNE,32,5.0,0.0,80,0.00,,,0.00,142,WeatherTracker,2013-03-01 15:11:00,
2013-03-01 09:17:00,24.0,18.5,30.37,NNE,18,6.0,0.0,79,0.00,,,0.00,142,WeatherTracker,2013-03-01 15:17:00,
2013-03-01 09:22:00,23.9,18.4,30.38,NW,319,4.0,0.0,79,0.00,,,0.00,139,WeatherTracker,2013-03-01 15:22:00,
2013-03-01 09:27:00,24.1,18.8,30.38,North,355,6.0,0.0,80,0.00,,,0.00,142,WeatherTracker,2013-03-01 15:27:00,
2013-03-01 09:32:00,24.2,18.6,30.38,NNW,327,9.0,0.0,79,0.00,,,0.00,139,WeatherTracker,2013-03-01 15:32:00,
2013-03-01 09:37:00,24.1,18.5,30.38,North,360,4.0,0.0,79,0.00,,,0.00,171,WeatherTracker,2013-03-01 15:37:00,
2013-03-01 09:42:00,24.2,18.6,30.38,North,355,3.0,0.0,79,0.00,,,0.00,181,WeatherTracker,2013-03-01 15:42:00,
2013-03-01 09:47:00,24.1,18.5,30.38,NW,324,6.0,0.0,79,0.00,,,0.00,192,WeatherTracker,2013-03-01 15:47:00,
2013-03-01 09:52:00,24.3,18.7,30.38,North,360,4.0,0.0,79,0.00,,,0.00,172,WeatherTracker,2013-03-01 15:52:00,
2013-03-01 09:57:00,24.5,18.9,30.38,NW,304,3.0,0.0,79,0.00,,,0.00,163,WeatherTracker,2013-03-01 15:57:00,
2013-03-01 10:02:00,24.5,18.9,30.38,NW,315,4.0,0.0,79,0.00,,,0.00,156,WeatherTracker,2013-03-01 16:02:00,
2013-03-01 10:07:00,24.6,19.0,30.38,NNW,329,12.0,0.0,79,0.00,,,0.00,153,WeatherTracker,2013-03-01 16:07:00,
2013-03-01 10:12:00,24.5,18.9,30.39,NNE,14,3.0,0.0,79,0.00,,,0.00,155,WeatherTracker,2013-03-01 16:12:00,
2013-03-01 10:17:00,24.6,19.0,30.39,NNE,32,9.0,0.0,79,0.00,,,0.00,209,WeatherTracker,2013-03-01 16:17:00,
2013-03-01 10:22:00,24.5,18.9,30.39,NE,40,1.0,0.0,79,0.00,,,0.00,206,WeatherTracker,2013-03-01 16:22:00,
2013-03-01 10:27:00,24.5,18.9,30.39,NNE,20,9.0,0.0,79,0.00,,,0.00,195,WeatherTracker,2013-03-01 16:27:00,
2013-03-01 10:32:00,24.5,18.9,30.39,NNE,26,5.0,0.0,79,0.00,,,0.00,206,WeatherTracker,2013-03-01 16:32:00,
2013-03-01 10:37:00,24.6,19.0,30.39,NNE,28,9.0,0.0,79,0.00,,,0.00,207,WeatherTracker,2013-03-01 16:37:00,
2013-03-01 10:42:00,24.6,18.7,30.38,NNE,26,3.0,0.0,78,0.00,,,0.00,197,WeatherTracker,2013-03-01 16:42:00,
2013-03-01 10:47:00,24.4,18.5,30.38,NNE,24,5.0,0.0,78,0.00,,,0.00,232,WeatherTracker,2013-03-01 16:47:00,
2013-03-01 10:52:00,24.6,19.0,30.39,NE,38,6.0,0.0,79,0.00,,,0.00,258,WeatherTracker,2013-03-01 16:52:00,
2013-03-01 10:57:00,24.9,19.3,30.39,NE,40,14.0,0.0,79,0.00,,,0.00,244,WeatherTracker,2013-03-01 16:57:00,
2013-03-01 11:03:00,24.7,18.8,30.39,NE,45,5.0,0.0,78,0.00,,,0.00,283,WeatherTracker,2013-03-01 17:03:00,
2013-03-01 11:08:00,24.7,19.1,30.39,NNE,24,12.0,0.0,79,0.00,,,0.00,269,WeatherTracker,2013-03-01 17:08:00,
2013-03-01 11:13:00,24.8,19.2,30.39,NNE,28,15.0,0.0,79,0.00,,,0.00,294,WeatherTracker,2013-03-01 17:13:00,
2013-03-01 11:18:00,24.6,18.7,30.39,NNE,25,9.0,0.0,78,0.00,,,0.00,301,WeatherTracker,2013-03-01 17:18:00,
2013-03-01 11:23:00,24.9,19.3,30.39,NE,41,7.0,0.0,79,0.00,,,0.00,380,WeatherTracker,2013-03-01 17:23:00,
2013-03-01 11:28:00,25.2,19.3,30.39,NNE,24,4.0,0.0,78,0.00,,,0.00,410,WeatherTracker,2013-03-01 17:28:00,
2013-03-01 11:33:00,25.4,19.5,30.39,NE,47,5.0,0.0,78,0.00,,,0.00,424,WeatherTracker,2013-03-01 17:33:00,
2013-03-01 11:38:00,25.8,19.6,30.39,NNW,338,3.0,0.0,77,0.00,,,0.00,475,WeatherTracker,2013-03-01 17:38:00,
2013-03-01 11:43:00,26.2,19.7,30.39,NNE,32,11.0,0.0,76,0.00,,,0.00,501,WeatherTracker,2013-03-01 17:43:00,
2013-03-01 11:48:00,26.5,19.7,30.39,NNE,12,4.0,0.0,75,0.00,,,0.00,547,WeatherTracker,2013-03-01 17:48:00,
2013-03-01 11:53:00,26.2,19.4,30.39,NNE,22,4.0,0.0,75,0.00,,,0.00,424,WeatherTracker,2013-03-01 17:53:00,
2013-03-01 11:58:00,26.2,19.4,30.39,NW,317,6.0,0.0,75,0.00,,,0.00,548,WeatherTracker,2013-03-01 17:58:00,
2013-03-01 12:03:00,26.3,19.5,30.40,North,9,14.0,0.0,75,0.00,,,0.00,445,WeatherTracker,2013-03-01 18:03:00,
2013-03-01 12:08:00,26.4,19.6,30.40,NE,50,3.0,0.0,75,0.00,,,0.00,388,WeatherTracker,2013-03-01 18:08:00,
2013-03-01 12:13:00,26.6,19.5,30.40,NNE,22,4.0,0.0,74,0.00,,,0.00,429,WeatherTracker,2013-03-01 18:13:00,
2013-03-01 12:18:00,26.4,19.3,30.40,NNE,17,12.0,0.0,74,0.00,,,0.00,445,WeatherTracker,2013-03-01 18:18:00,
2013-03-01 12:23:00,26.3,19.2,30.40,NNW,344,3.0,0.0,74,0.00,,,0.00,471,WeatherTracker,2013-03-01 18:23:00,
2013-03-01 12:29:00,26.6,19.8,30.40,NNE,22,4.0,0.0,75,0.00,,,0.00,485,WeatherTracker,2013-03-01 18:29:00,
2013-03-01 12:34:00,26.6,19.5,30.40,NNE,13,12.0,0.0,74,0.00,,,0.00,432,WeatherTracker,2013-03-01 18:34:00,
2013-03-01 12:39:00,26.7,19.9,30.40,NNW,346,4.0,0.0,75,0.00,,,0.00,434,WeatherTracker,2013-03-01 18:39:00,
2013-03-01 12:44:00,27.1,19.9,30.39,NNE,26,2.0,0.0,74,0.00,,,0.00,564,WeatherTracker,2013-03-01 18:44:00,
2013-03-01 12:49:00,27.7,20.2,30.39,NNE,22,3.0,0.0,73,0.00,,,0.00,561,WeatherTracker,2013-03-01 18:49:00,
2013-03-01 12:54:00,27.9,20.1,30.39,NNE,28,9.0,0.0,72,0.00,,,0.00,408,WeatherTracker,2013-03-01 18:54:00,
2013-03-01 12:59:00,27.6,19.8,30.38,North,9,4.0,0.0,72,0.00,,,0.00,385,WeatherTracker,2013-03-01 18:59:00,
2013-03-01 13:04:00,27.7,19.9,30.38,NNE,16,8.0,0.0,72,0.00,,,0.00,1042,WeatherTracker,2013-03-01 19:04:00,
2013-03-01 13:09:00,28.0,20.2,30.38,NNE,20,15.0,0.0,72,0.00,,,0.00,1023,WeatherTracker,2013-03-01 19:09:00,
2013-03-01 13:14:00,28.2,20.4,30.38,NNE,16,10.0,0.0,72,0.00,,,0.00,366,WeatherTracker,2013-03-01 19:14:00,
2013-03-01 13:19:00,27.8,20.0,30.38,NNE,31,5.0,0.0,72,0.00,,,0.00,490,WeatherTracker,2013-03-01 19:19:00,
2013-03-01 13:24:00,27.7,19.9,30.38,NNE,18,11.0,0.0,72,0.00,,,0.00,332,WeatherTracker,2013-03-01 19:24:00,
2013-03-01 13:29:00,27.7,20.2,30.38,NNE,26,5.0,0.0,73,0.00,,,0.00,425,WeatherTracker,2013-03-01 19:29:00,
2013-03-01 13:34:00,27.9,20.1,30.37,NNE,24,5.0,0.0,72,0.00,,,0.00,364,WeatherTracker,2013-03-01 19:34:00,
2013-03-01 13:39:00,28.0,20.5,30.37,NNW,344,1.0,0.0,73,0.00,,,0.00,357,WeatherTracker,2013-03-01 19:39:00,
2013-03-01 13:44:00,28.4,20.2,30.37,NNW,342,5.0,0.0,71,0.00,,,0.00,870,WeatherTracker,2013-03-01 19:44:00,
2013-03-01 13:49:00,28.5,20.3,30.37,North,360,7.0,0.0,71,0.00,,,0.00,364,WeatherTracker,2013-03-01 19:49:00,
2013-03-01 13:54:00,28.0,19.8,30.37,NNE,27,5.0,0.0,71,0.00,,,0.00,858,WeatherTracker,2013-03-01 19:54:00,
2013-03-01 13:59:00,28.1,19.9,30.37,NNE,24,5.0,0.0,71,0.00,,,0.00,858,WeatherTracker,2013-03-01 19:59:00,
2013-03-01 14:04:00,28.7,20.5,30.37,WNW,299,11.0,0.0,71,0.00,,,0.00,302,WeatherTracker,2013-03-01 20:04:00,
2013-03-01 14:09:00,28.5,20.0,30.37,NE,34,4.0,0.0,70,0.00,,,0.00,302,WeatherTracker,2013-03-01 20:09:00,
2013-03-01 14:14:00,28.7,20.2,30.37,NW,320,9.0,0.0,70,0.00,,,0.00,255,WeatherTracker,2013-03-01 20:14:00,
2013-03-01 14:19:00,28.5,20.0,30.37,NE,56,5.0,0.0,70,0.00,,,0.00,763,WeatherTracker,2013-03-01 20:19:00,
2013-03-01 14:24:00,28.7,19.8,30.36,WNW,300,6.0,0.0,69,0.00,,,0.00,735,WeatherTracker,2013-03-01 20:24:00,
2013-03-01 14:29:00,28.7,19.8,30.37,NW,314,9.0,0.0,69,0.00,,,0.00,735,WeatherTracker,2013-03-01 20:29:00,
2013-03-01 14:34:00,28.5,19.6,30.37,NNW,345,4.0,0.0,69,0.00,,,0.00,302,WeatherTracker,2013-03-01 20:34:00,
2013-03-01 14:39:00,28.7,19.8,30.37,NNE,13,6.0,0.0,69,0.00,,,0.00,304,WeatherTracker,2013-03-01 20:39:00,
2013-03-01 14:44:00,28.7,19.8,30.37,NNW,340,4.0,0.0,69,0.00,,,0.00,211,WeatherTracker,2013-03-01 20:44:00,
2013-03-01 14:49:00,28.9,20.4,30.37,North,355,5.0,0.0,70,0.00,,,0.00,283,WeatherTracker,2013-03-01 20:49:00,
2013-03-01 14:54:00,29.1,20.2,30.37,NW,321,7.0,0.0,69,0.00,,,0.00,759,WeatherTracker,2013-03-01 20:54:00,
2013-03-01 15:00:00,29.2,20.0,30.37,North,10,3.0,0.0,68,0.00,,,0.00,722,WeatherTracker,2013-03-01 21:00:00,
2013-03-01 15:05:00,30.1,21.2,30.37,NW,321,16.0,0.0,69,0.00,,,0.00,675,WeatherTracker,2013-03-01 21:05:00,
2013-03-01 15:10:00,30.4,20.8,30.37,North,360,4.0,0.0,67,0.00,,,0.00,629,WeatherTracker,2013-03-01 21:10:00,
2013-03-01 15:15:00,30.2,20.2,30.37,NE,34,10.0,0.0,66,0.00,,,0.00,594,WeatherTracker,2013-03-01 21:15:00,
2013-03-01 15:20:00,30.1,20.1,30.36,NW,306,5.0,0.0,66,0.00,,,0.00,606,WeatherTracker,2013-03-01 21:20:00,
2013-03-01 15:25:00,30.5,20.9,30.36,NNE,13,3.0,0.0,67,0.00,,,0.00,306,WeatherTracker,2013-03-01 21:25:00,
2013-03-01 15:30:00,30.4,20.8,30.36,North,5,5.0,0.0,67,0.00,,,0.00,621,WeatherTracker,2013-03-01 21:30:00,
2013-03-01 15:35:00,30.8,21.2,30.36,NE,39,6.0,0.0,67,0.00,,,0.00,584,WeatherTracker,2013-03-01 21:35:00,
2013-03-01 15:40:00,30.5,20.2,30.36,NW,315,4.0,0.0,65,0.00,,,0.00,599,WeatherTracker,2013-03-01 21:40:00,
2013-03-01 15:45:00,30.5,20.5,30.36,NW,326,5.0,0.0,66,0.00,,,0.00,529,WeatherTracker,2013-03-01 21:45:00,
2013-03-01 15:50:00,30.3,20.3,30.36,NW,314,5.0,0.0,66,0.00,,,0.00,195,WeatherTracker,2013-03-01 21:50:00,
2013-03-01 15:55:00,29.8,20.2,30.36,NE,38,5.0,0.0,67,0.00,,,0.00,561,WeatherTracker,2013-03-01 21:55:00,
2013-03-01 16:00:00,29.8,20.5,30.36,NW,326,6.0,0.0,68,0.00,,,0.00,255,WeatherTracker,2013-03-01 22:00:00,
2013-03-01 16:05:00,30.2,20.9,30.37,North,355,3.0,0.0,68,0.00,,,0.00,227,WeatherTracker,2013-03-01 22:05:00,
2013-03-01 16:10:00,30.3,20.7,30.37,NW,309,4.0,0.0,67,0.00,,,0.00,276,WeatherTracker,2013-03-01 22:10:00,
2013-03-01 16:15:00,30.3,20.7,30.37,NNW,328,8.0,0.0,67,0.00,,,0.00,424,WeatherTracker,2013-03-01 22:15:00,
2013-03-01 16:20:00,30.1,20.5,30.36,NW,323,5.0,0.0,67,0.00,,,0.00,338,WeatherTracker,2013-03-01 22:20:00,
2013-03-01 16:25:00,30.1,20.1,30.36,NNW,339,5.0,0.0,66,0.00,,,0.00,373,WeatherTracker,2013-03-01 22:25:00,
2013-03-01 16:30:00,30.2,20.2,30.37,NW,316,5.0,0.0,66,0.00,,,0.00,323,WeatherTracker,2013-03-01 22:30:00,
2013-03-01 16:35:00,30.5,20.5,30.37,NW,321,4.0,0.0,66,0.00,,,0.00,316,WeatherTracker,2013-03-01 22:35:00,
2013-03-01 16:41:00,30.6,20.3,30.37,NW,313,6.0,0.0,65,0.00,,,0.00,297,WeatherTracker,2013-03-01 22:41:00,
2013-03-01 16:46:00,30.7,20.3,30.38,NNE,29,3.0,0.0,65,0.00,,,0.00,279,WeatherTracker,2013-03-01 22:46:00,
2013-03-01 16:51:00,30.8,20.4,30.38,NW,313,3.0,0.0,65,0.00,,,0.00,258,WeatherTracker,2013-03-01 22:51:00,
2013-03-01 16:56:00,30.6,20.3,30.38,NNE,22,7.0,0.0,65,0.00,,,0.00,237,WeatherTracker,2013-03-01 22:56:00,
2013-03-01 17:01:00,30.5,20.2,30.38,NE,34,6.0,0.0,65,0.00,,,0.00,220,WeatherTracker,2013-03-01 23:01:00,
2013-03-01 17:06:00,30.2,20.2,30.39,NW,314,4.0,0.0,66,0.00,,,0.00,200,WeatherTracker,2013-03-01 23:06:00,
2013-03-01 17:11:00,30.3,20.3,30.39,NW,319,5.0,0.0,66,0.00,,,0.00,183,WeatherTracker,2013-03-01 23:11:00,
2013-03-01 17:16:00,30.1,20.1,30.39,North,11,4.0,0.0,66,0.00,,,0.00,162,WeatherTracker,2013-03-01 23:16:00,
2013-03-01 17:21:00,30.1,20.5,30.39,North,350,1.0,0.0,67,0.00,,,0.00,139,WeatherTracker,2013-03-01 23:21:00,
2013-03-01 17:26:00,30.2,20.2,30.39,North,350,4.0,0.0,66,0.00,,,0.00,121,WeatherTracker,2013-03-01 23:26:00,
2013-03-01 17:31:00,30.1,20.1,30.39,North,355,5.0,0.0,66,0.00,,,0.00,104,WeatherTracker,2013-03-01 23:31:00,
2013-03-01 17:36:00,29.9,20.3,30.39,North,349,4.0,0.0,67,0.00,,,0.00,86,WeatherTracker,2013-03-01 23:36:00,
2013-03-01 17:41:00,29.7,20.1,30.39,North,9,5.0,0.0,67,0.00,,,0.00,72,WeatherTracker,2013-03-01 23:41:00,
2013-03-01 17:46:00,29.6,20.4,30.39,NW,317,2.0,0.0,68,0.00,,,0.00,56,WeatherTracker,2013-03-01 23:46:00,
2013-03-01 17:51:00,29.4,20.2,30.39,NNW,348,4.0,0.0,68,0.00,,,0.00,46,WeatherTracker,2013-03-01 23:51:00,
2013-03-01 17:56:00,29.2,20.0,30.39,North,355,0.0,0.0,68,0.00,,,0.00,32,WeatherTracker,2013-03-01 23:56:00,
2013-03-01 18:01:00,29.0,19.8,30.39,North,360,3.0,0.0,68,0.00,,,0.00,23,WeatherTracker,2013-03-02 00:01:00,
2013-03-01 18:06:00,28.7,19.8,30.39,NNE,13,6.0,0.0,69,0.00,,,0.00,19,WeatherTracker,2013-03-02 00:06:00,
2013-03-01 18:11:00,28.4,19.5,30.40,NNE,15,3.0,0.0,69,0.00,,,0.00,16,WeatherTracker,2013-03-02 00:11:00,
2013-03-01 18:16:00,28.3,19.8,30.40,North,355,1.0,0.0,70,0.00,,,0.00,12,WeatherTracker,2013-03-02 00:16:00,
2013-03-01 18:21:00,28.2,19.7,30.40,North,360,3.0,0.0,70,0.00,,,0.00,9,WeatherTracker,2013-03-02 00:21:00,
2013-03-01 18:27:00,28.0,19.5,30.40,North,360,0.0,0.0,70,0.00,,,0.00,5,WeatherTracker,2013-03-02 00:27:00,
2013-03-01 18:32:00,27.8,19.3,30.40,North,360,2.0,0.0,70,0.00,,,0.00,0,WeatherTracker,2013-03-02 00:32:00,
2013-03-01 18:37:00,27.7,19.5,30.40,North,360,1.0,0.0,71,0.00,,,0.00,0,WeatherTracker,2013-03-02 00:37:00,
2013-03-01 18:42:00,27.5,19.4,30.40,North,360,3.0,0.0,71,0.00,,,0.00,0,WeatherTracker,2013-03-02 00:42:00,
2013-03-01 18:47:00,27.4,19.3,30.40,North,360,4.0,0.0,71,0.00,,,0.00,0,WeatherTracker,2013-03-02 00:47:00,
2013-03-01 18:52:00,27.3,19.2,30.40,North,360,3.0,0.0,71,0.00,,,0.00,0,WeatherTracker,2013-03-02 00:52:00,
2013-03-01 18:57:00,27.2,19.1,30.41,North,355,2.0,0.0,71,0.00,,,0.00,0,WeatherTracker,2013-03-02 00:57:00,
2013-03-01 19:02:00,27.2,19.1,30.41,North,355,4.0,0.0,71,0.00,,,0.00,0,WeatherTracker,2013-03-02 01:02:00,
2013-03-01 19:07:00,27.0,18.9,30.41,North,355,2.0,0.0,71,0.00,,,0.00,0,WeatherTracker,2013-03-02 01:07:00,
2013-03-01 19:12:00,26.9,19.1,30.41,North,355,3.0,0.0,72,0.00,,,0.00,0,WeatherTracker,2013-03-02 01:12:00,
2013-03-01 19:17:00,26.8,19.0,30.41,North,355,0.0,0.0,72,0.00,,,0.00,0,WeatherTracker,2013-03-02 01:17:00,
2013-03-01 19:22:00,26.6,18.8,30.41,North,355,1.0,0.0,72,0.00,,,0.00,0,WeatherTracker,2013-03-02 01:22:00,
2013-03-01 19:27:00,26.4,18.6,30.41,North,355,0.0,0.0,72,0.00,,,0.00,0,WeatherTracker,2013-03-02 01:27:00,
2013-03-01 19:32:00,26.2,18.4,30.41,North,355,2.0,0.0,72,0.00,,,0.00,0,WeatherTracker,2013-03-02 01:32:00,
2013-03-01 19:37:00,26.0,18.6,30.41,North,355,0.0,0.0,73,0.00,,,0.00,0,WeatherTracker,2013-03-02 01:37:00,
2013-03-01 19:42:00,25.8,18.4,30.41,North,355,0.0,0.0,73,0.00,,,0.00,0,WeatherTracker,2013-03-02 01:42:00,
2013-03-01 19:47:00,25.5,18.1,30.41,North,355,0.0,0.0,73,0.00,,,0.00,0,WeatherTracker,2013-03-02 01:47:00,
2013-03-01 19:52:00,25.3,18.2,30.41,North,355,0.0,0.0,74,0.00,,,0.00,0,WeatherTracker,2013-03-02 01:52:00,
2013-03-01 19:57:00,25.1,18.0,30.41,North,355,0.0,0.0,74,0.00,,,0.00,0,WeatherTracker,2013-03-02 01:57:00,
2013-03-01 20:02:00,24.9,17.8,30.41,North,355,0.0,0.0,74,0.00,,,0.00,0,WeatherTracker,2013-03-02 02:02:00,
2013-03-01 20:07:00,24.8,18.0,30.41,North,355,0.0,0.0,75,0.00,,,0.00,0,WeatherTracker,2013-03-02 02:07:00,
2013-03-01 20:12:00,24.7,17.9,30.41,North,355,0.0,0.0,75,0.00,,,0.00,0,WeatherTracker,2013-03-02 02:12:00,
2013-03-01 20:17:00,24.7,17.9,30.41,North,355,0.0,0.0,75,0.00,,,0.00,0,WeatherTracker,2013-03-02 02:17:00,
2013-03-01 20:22:00,24.7,17.9,30.41,North,355,0.0,0.0,75,0.00,,,0.00,0,WeatherTracker,2013-03-02 02:22:00,
2013-03-01 20:28:00,24.6,18.1,30.41,North,355,0.0,0.0,76,0.00,,,0.00,0,WeatherTracker,2013-03-02 02:28:00,
2013-03-01 20:33:00,24.4,17.9,30.41,North,355,0.0,0.0,76,0.00,,,0.00,0,WeatherTracker,2013-03-02 02:33:00,
2013-03-01 20:38:00,24.3,17.8,30.42,North,355,1.0,0.0,76,0.00,,,0.00,0,WeatherTracker,2013-03-02 02:38:00,
2013-03-01 20:43:00,24.1,17.7,30.42,North,355,0.0,0.0,76,0.00,,,0.00,0,WeatherTracker,2013-03-02 02:43:00,
2013-03-01 20:48:00,23.9,17.5,30.42,North,355,0.0,0.0,76,0.00,,,0.00,0,WeatherTracker,2013-03-02 02:48:00,
2013-03-01 20:53:00,23.7,17.6,30.41,North,355,0.0,0.0,77,0.00,,,0.00,0,WeatherTracker,2013-03-02 02:53:00,
2013-03-01 20:58:00,23.5,17.4,30.42,North,355,0.0,0.0,77,0.00,,,0.00,0,WeatherTracker,2013-03-02 02:58:00,
2013-03-01 21:03:00,23.3,17.2,30.42,North,355,0.0,0.0,77,0.00,,,0.00,0,WeatherTracker,2013-03-02 03:03:00,
2013-03-01 21:08:00,23.1,17.3,30.42,North,355,0.0,0.0,78,0.00,,,0.00,0,WeatherTracker,2013-03-02 03:08:00,
2013-03-01 21:13:00,23.0,17.2,30.42,North,355,0.0,0.0,78,0.00,,,0.00,0,WeatherTracker,2013-03-02 03:13:00,
2013-03-01 21:18:00,22.9,17.1,30.42,North,355,0.0,0.0,78,0.00,,,0.00,0,WeatherTracker,2013-03-02 03:18:00,
2013-03-01 21:23:00,22.6,16.8,30.42,North,355,0.0,0.0,78,0.00,,,0.00,0,WeatherTracker,2013-03-02 03:23:00,
2013-03-01 21:28:00,22.5,17.0,30.42,North,355,0.0,0.0,79,0.00,,,0.00,0,WeatherTracker,2013-03-02 03:28:00,
2013-03-01 21:33:00,22.4,16.9,30.42,North,355,0.0,0.0,79,0.00,,,0.00,0,WeatherTracker,2013-03-02 03:33:00,
2013-03-01 21:38:00,22.3,16.8,30.42,North,355,0.0,0.0,79,0.00,,,0.00,0,WeatherTracker,2013-03-02 03:38:00,
2013-03-01 21:43:00,22.1,16.9,30.42,North,355,0.0,0.0,80,0.00,,,0.00,0,WeatherTracker,2013-03-02 03:43:00,
2013-03-01 21:49:00,22.0,16.8,30.42,North,355,0.0,0.0,80,0.00,,,0.00,0,WeatherTracker,2013-03-02 03:49:00,
2013-03-01 21:54:00,21.8,16.6,30.42,North,355,0.0,0.0,80,0.00,,,0.00,0,WeatherTracker,2013-03-02 03:54:00,
2013-03-01 21:59:00,21.6,16.4,30.42,North,355,0.0,0.0,80,0.00,,,0.00,0,WeatherTracker,2013-03-02 03:59:00,
2013-03-01 22:04:00,21.4,16.5,30.42,North,355,0.0,0.0,81,0.00,,,0.00,0,WeatherTracker,2013-03-02 04:04:00,
2013-03-01 22:09:00,21.2,16.3,30.42,North,355,0.0,0.0,81,0.00,,,0.00,0,WeatherTracker,2013-03-02 04:09:00,
2013-03-01 22:14:00,21.1,16.2,30.42,North,355,0.0,0.0,81,0.00,,,0.00,0,WeatherTracker,2013-03-02 04:14:00,
2013-03-01 22:19:00,20.8,16.2,30.42,North,355,0.0,0.0,82,0.00,,,0.00,0,WeatherTracker,2013-03-02 04:19:00,
2013-03-01 22:24:00,20.7,16.1,30.42,North,355,0.0,0.0,82,0.00,,,0.00,0,WeatherTracker,2013-03-02 04:24:00,
2013-03-01 22:29:00,20.6,16.0,30.42,North,355,0.0,0.0,82,0.00,,,0.00,0,WeatherTracker,2013-03-02 04:29:00,
2013-03-01 22:34:00,20.4,15.8,30.42,North,355,0.0,0.0,82,0.00,,,0.00,0,WeatherTracker,2013-03-02 04:34:00,
2013-03-01 22:39:00,20.5,16.2,30.42,North,355,0.0,0.0,83,0.00,,,0.00,0,WeatherTracker,2013-03-02 04:39:00,
2013-03-01 22:44:00,20.6,16.3,30.42,North,355,0.0,0.0,83,0.00,,,0.00,0,WeatherTracker,2013-03-02 04:44:00,
2013-03-01 22:49:00,20.6,16.3,30.42,North,355,0.0,0.0,83,0.00,,,0.00,0,WeatherTracker,2013-03-02 04:49:00,
2013-03-01 22:54:00,20.6,16.3,30.42,North,355,0.0,0.0,83,0.00,,,0.00,0,WeatherTracker,2013-03-02 04:54:00,
2013-03-01 22:59:00,20.6,16.3,30.42,North,355,0.0,0.0,83,0.00,,,0.00,0,WeatherTracker,2013-03-02 04:59:00,
2013-03-01 23:00:00,20.7,16.4,30.42,North,355,0.0,0.0,83,0.00,,,0.00,0,WeatherTracker,2013-03-02 05:00:00,
2013-03-01 23:06:00,20.7,16.4,30.42,North,355,0.0,0.0,83,0.00,,,0.00,0,WeatherTracker,2013-03-02 05:06:00,
2013-03-01 23:11:00,20.7,16.4,30.42,North,355,0.0,0.0,83,0.00,,,0.00,0,WeatherTracker,2013-03-02 05:11:00,
2013-03-01 23:16:00,20.7,16.4,30.42,North,355,0.0,0.0,83,0.00,,,0.00,0,WeatherTracker,2013-03-02 05:16:00,
2013-03-01 23:21:00,20.5,15.9,30.42,North,355,0.0,0.0,82,0.00,,,0.00,0,WeatherTracker,2013-03-02 05:21:00,
2013-03-01 23:26:00,20.4,15.8,30.42,North,355,0.0,0.0,82,0.00,,,0.00,0,WeatherTracker,2013-03-02 05:26:00,
2013-03-01 23:31:00,20.3,16.0,30.42,North,355,0.0,0.0,83,0.00,,,0.00,0,WeatherTracker,2013-03-02 05:31:00,
2013-03-01 23:36:00,20.1,15.8,30.42,North,355,0.0,0.0,83,0.00,,,0.00,0,WeatherTracker,2013-03-02 05:36:00,
2013-03-01 23:41:00,20.1,15.8,30.42,North,355,0.0,0.0,83,0.00,,,0.00,0,WeatherTracker,2013-03-02 05:41:00,
2013-03-01 23:46:00,20.0,15.7,30.42,North,355,0.0,0.0,83,0.00,,,0.00,0,WeatherTracker,2013-03-02 05:46:00,
2013-03-01 23:51:00,19.9,15.6,30.42,North,355,0.0,0.0,83,0.00,,,0.00,0,WeatherTracker,2013-03-02 05:51:00,
2013-03-01 23:56:00,19.7,15.4,30.42,North,355,0.0,0.0,83,0.00,,,0.00,0,WeatherTracker,2013-03-02 05:56:00,